星链-4085 (STARLINK-4085 )

导读 | 豆包AI

STARLINK-4085是美国太空探索技术公司SpaceX旗下星链Starlink星座的一员,于2022年7月24日发射升空。星链计划旨在构建近地轨道卫星互联网星座,为全球偏远地区提供高速宽带服务。该卫星运行于近地轨道,配备氪离子推进、自主碰撞规避等技术,设计寿命约5年,是星链星座不断扩容组网过程中的一颗标准通信卫星,助力全球低延迟互联网覆盖。

基本信息
目录编号:
53262
目录名称:
STARLINK-4085
国际标识:
2022-086W
轨道中心:
EARTH
卫星名称:
星链-4085
卫星全名:
星链-4085 (STARLINK-4085 )
卫星状态:
在轨 (已飞行1330 天)
发射日期:
2022-07-24 UTC
国别 :
美国 (US)
星等 :
--
轨道信息
数据来源 国际轨道数据
星历时间: 2026-03-14T20:17:20+0800
14小时前
查看轨道信息
半长轴: 6917.86km
偏心率: 0.0001101
轨道倾角: 53.216°
近地点辐角 87.518°
升交点赤经 172.474°
平近点角 272.594°
近地点: 538.961km
远地点: 540.485km
周期: 95.437分钟
每日圈数: 15.088468
详细信息
固有亮度:
5
最大亮度:
2.5
卫星平台:
Starlink v1.5
覆盖范围:
全球
运营商:
太空探索技术公司
运营商所在国:
美国
制造商(研发单位):
太空探索技术公司
制造商所在国:
美国
使用方式:
暂无
卫星简介
星链(Starlink)计划是由太空探索技术公司(SpaceX)提出的一个巨型低轨卫星互联网星座项目,计划在2019年至2024年间在太空搭建由约1.2万颗卫星组成的“星链”网络,其中1584颗将部署在地球上空550千米处的近地轨道,并从2020年开始工作。该卫星仍在工作。
2D轨道图
3D轨道图
轨道高度分析图
轨道倾角分析图
轨道综合分析图
查看轨道综合分析图